Flag for Switzerland Weather past 2 weeks in Ilanz, Graubünden, Switzerland

Now
34 °F

Chilly.


Feels Like: 26 °F
Forecast: 14 / 38 °F
Wind: 12 mph from Northeast

Location: Chur-Ems

Current Time: Mar 5, 2015 at 3:51:44 AM

Latest Report: Mar 5, 2015 at 3:00 AM


Visibility: N/A

Pressure: 30.51 "Hg

Humidity: 76%

Dew point: 27 °F

Location of IlanzLocation

Historic Weather in Ilanz — Graph

°F

Ilanz temperature yesterday

Maximum temperature yesterday: 42 °F (at 3:00 PM)
Minimum temperature yesterday: 34 °F (at 9:00 PM)
Average temperature yesterday: 38 °F

Past Weeks' High & Low Weather Summary

 TemperatureHumidityPressure
High54 °F (Feb 20, 2:00 PM)96% (Mar 2, 7:00 AM)30.73 "Hg (Mar 2, 7:00 AM)
Low25 °F (Feb 19, 5:00 AM)19% (Feb 20, 2:00 PM)29.47 "Hg (Feb 21, 2:00 PM)
Average38 °F67%30.09 "Hg
* Reported Feb 18 2:00 AM — Mar 5 2:00 AM, Ilanz, Weather by CustomWeather, © 2015

Note: Actual official high and low records may vary slightly from our data, if they occured in-between our weather recording intervals... More about our weather records

Advertising

Ilanz weather history for previous 24 hours

 ConditionsComfort  
Time TempWeatherWind HumidityBarometerVisibility
2:00 AM
Thu, Mar 5
34 °FChilly.10 mph78%30.52 "HgN/A
1:00 AM35 °FOvercast.8 mph74%30.50 "Hg10 mi
12:00 AM35 °FChilly.8 mph75%30.47 "HgN/A
11:00 PM
Wed, Mar 4
35 °FChilly.7 mph82%30.47 "HgN/A
9:00 PM34 °FChilly.8 mph84%30.43 "HgN/A
8:00 PM35 °FChilly.9 mph81%30.42 "HgN/A
7:00 PM36 °FFog.17 mph75%30.39 "Hg9 mi
6:00 PM39 °FChilly.13 mph55%30.34 "HgN/A
5:00 PM41 °FQuite cool.13 mph49%30.32 "HgN/A
4:00 PM41 °FOvercast.13 mph56%30.30 "Hg12 mi
3:00 PM42 °FQuite cool.13 mph57%30.29 "HgN/A
2:00 PM42 °FQuite cool.16 mph61%30.30 "HgN/A
1:00 PM40 °FOvercast.14 mph61%30.31 "Hg11 mi
12:00 PM40 °FChilly.15 mph69%30.32 "HgN/A
11:00 AM38 °FChilly.13 mph79%30.34 "HgN/A
10:00 AM37 °FLow clouds.12 mph85%30.34 "Hg4 mi
9:00 AM36 °FChilly.13 mph87%30.34 "HgN/A
8:00 AM36 °FChilly.12 mph89%30.32 "HgN/A
7:00 AM35 °FLight rain. Low clouds.2 mph94%30.32 "Hg2 mi
6:00 AM36 °FChilly.2 mph85%30.29 "HgN/A
5:00 AM37 °FChilly.1 mph82%30.28 "HgN/A
3:00 AM38 °FChilly.5 mph76%30.26 "HgN/A
Weather by CustomWeather, © 2015

See weather overviewHow to use our weather pages